"Pseudo-MPEC" for P222BEj

Created 2024 Dec 1 5:31:14 UT using Find_Orb

Click here for an explanation of pseudo-MPECs

 
 Astrometry: 
     P222BEj* C2024 11 28.45816705 22 25.147+01 19 34.98   ~BSHl 21.19wXNEOCPF52
     P222BEj  C2024 11 28.46981705 22 23.229+01 19 51.93   ~BSHl 21.41wXNEOCPF52
     P222BEj  C2024 11 28.48151705 22 21.293+01 20 09.05   ~BSHl 21.54wXNEOCPF52
     P222BEj |C2024 11 29.34067005 20 02.390+01 41 28.00   ~BT8l 21.0 GVNEOCP807
     P222BEj |C2024 11 29.34437005 20 01.760+01 41 33.30   ~BT8l 21.4 GVNEOCP807
     P222BEj |C2024 11 29.34808005 20 01.150+01 41 38.80   ~BT8l 21.3 GVNEOCP807
     P222BEj 1C2024 11 29.94850005 18 24.419+01 56 19.90   ~BTNl 21.0 GXNEOCP033
     P222BEj 1C2024 11 29.95066005 18 24.059+01 56 23.00   ~BTNl 21.1 GXNEOCP033
     P222BEj 1C2024 11 29.95281005 18 23.688+01 56 26.40   ~BTNl 20.7 GXNEOCP033
     P222BEj KC2024 11 30.25289105 17 34.76 +02 03 59.9    ~BU6l 21.4 GVNEOCPH21
     P222BEj KC2024 11 30.25848405 17 33.81 +02 04 08.3    ~BU6l 21.4 GVNEOCPH21
     P222BEj KC2024 11 30.26156205 17 33.30 +02 04 12.9    ~BU6l 21.0 GVNEOCPH21

Station data:
(033) Karl Schwarzschild Observatory, Tautenburg  (N50.980139 E11.711240)
   Germany.  Observer B. Stecklum. 1.34-m f/3 Schmidt + CCD.
(807) Cerro Tololo Observatory, La Serena  (S30.169133 W70.805900)  Chile.
   Observer R. Holmes. 0.61-m f/6.5 astrograph + CCD.
(F52) Pan-STARRS 2, Haleakala  (N20.707382 W156.255910)  US/Hawaii.
   Observers J. Bulger, T. Dukes, T. Lowe, A. Schultz, M. Willman. Measurers
   K. Chambers, S. Chastel, T. de Boer, L. Denneau, J. Fairlamb, H.
   Flewelling, M. Huber, C.-C. Lin, E. Magnier, Y. Ramanjooloo, R. Wainscoat,
   R. Weryk. 1.8-m Ritchey-Chrétien + CCD.
(H21) Astronomical Research Observatory, Westfield  (N39.483054 W87.968270)
   US/Illinois.  Observer R. Holmes. Measurers S. Foglia, L. Buzzi, T.
   Linder, R. Holmes. 0.76-m f/3.0 astrograph + CCD0.81-m f/4.0 astrograph +
   CCD0.61-m f/4.5 astrograph + CCD0.40-m f/5.32 astrograph + CCD.

Orbital elements:  P222BEj
   Perihelion 2024 May 27.30975 +/- 1.94 TT =  7:26:02 (JD 2460457.80975)
Epoch 2024 Nov 30.0 TT = JDT 2460644.5   Earth MOID: 0.0887      AutoNEOCP
M 117.85804300 +/- 1.9              (J2000 ecliptic)
n   0.63130261 +/- 0.00973          Peri.  198.85886 +/- 0.9
a   1.34579111 +/- 0.0138           Node    86.74012 +/- 0.35
e   0.3207934 +/- 0.00746           Incl.   31.09276 +/- 1.1
P   1.561/570.239d         H 20.34  G  0.15   U  9.6
q 0.91407014 +/- 0.00225    Q 1.77751208 +/- 0.0281
From 12 observations 2024 Nov. 28-30 (43.3 hr); mean residual 0".13
Residuals in arcseconds: 
241128 F52  .12-  .06+    241129 807  .08-  .04+    241129 033  .04-  .19+    
241128 F52  .04+  .04-    241129 807  .03-  .03+    241130 H21  .02+  .10-    
241128 F52  .06+  .05-    241129 033  .19+  .16+    241130 H21  .20-  .15-    
241129 807  .19+  .24+    241129 033  .17+  .02+    241130 H21  .13-  .19-    

Ephemerides (geocentric):
Date (UTC) HH   RA             Dec           delta  r     elong  mag " sig PA
---- --------  ------------   ------------  ------ ------ -----  --- --------
2024 12 01 06  05 14 51.582   +02 29 24.62  .68010 1.6361 157.8 21.3 1.45 143
2024 12 01 07  05 14 44.745   +02 30 28.50  .68010 1.6362 157.8 21.3 1.52 143
2024 12 01 08  05 14 37.906   +02 31 32.42  .68011 1.6363 157.9 21.3 1.58 143
2024 12 01 09  05 14 31.066   +02 32 36.37  .68012 1.6364 157.9 21.3 1.65 143
2024 12 01 10  05 14 24.225   +02 33 40.37  .68012 1.6366 158.0 21.3 1.72 143
2024 12 01 11  05 14 17.381   +02 34 44.40  .68013 1.6367 158.0 21.3 1.79 143
2024 12 01 12  05 14 10.537   +02 35 48.47  .68014 1.6368 158.1 21.3 1.86 143
2024 12 01 13  05 14 03.691   +02 36 52.57  .68015 1.6369 158.1 21.3 1.93 142
2024 12 01 14  05 13 56.843   +02 37 56.72  .68016 1.6370 158.2 21.3 2.01 142
2024 12 01 15  05 13 49.994   +02 39 00.90  .68017 1.6372 158.2 21.3 2.08 142
2024 12 01 16  05 13 43.143   +02 40 05.12  .68018 1.6373 158.2 21.3 2.16 142
2024 12 01 17  05 13 36.292   +02 41 09.38  .68019 1.6374 158.3 21.3 2.23 142
2024 12 01 18  05 13 29.438   +02 42 13.67  .68020 1.6375 158.3 21.3 2.31 142
2024 12 01 19  05 13 22.584   +02 43 18.00  .68021 1.6376 158.4 21.3 2.39 142
2024 12 01 20  05 13 15.728   +02 44 22.37  .68023 1.6378 158.4 21.3 2.47 142
2024 12 01 21  05 13 08.871   +02 45 26.77  .68024 1.6379 158.5 21.3 2.55 142
2024 12 01 22  05 13 02.012   +02 46 31.22  .68025 1.6380 158.5 21.3 2.63 142
2024 12 01 23  05 12 55.152   +02 47 35.69  .68027 1.6381 158.6 21.3 2.72 142
2024 12 02 00  05 12 48.291   +02 48 40.21  .68028 1.6382 158.6 21.3 2.80 142
2024 12 02 01  05 12 41.429   +02 49 44.76  .68030 1.6384 158.6 21.3 2.89 142
2024 12 02 02  05 12 34.565   +02 50 49.34  .68031 1.6385 158.7 21.3 2.98 142
2024 12 02 03  05 12 27.700   +02 51 53.96  .68033 1.6386 158.7 21.3 3.07 142
2024 12 02 04  05 12 20.834   +02 52 58.62  .68035 1.6387 158.8 21.3 3.16 142
2024 12 02 05  05 12 13.967   +02 54 03.31  .68036 1.6388 158.8 21.3 3.25 142
2024 12 02 06  05 12 07.099   +02 55 08.04  .68038 1.6390 158.8 21.3 3.34 142
2024 12 02 07  05 12 00.230   +02 56 12.80  .68040 1.6391 158.9 21.3 3.43 142
2024 12 02 08  05 11 53.359   +02 57 17.60  .68042 1.6392 158.9 21.3 3.53 142
2024 12 02 09  05 11 46.488   +02 58 22.44  .68044 1.6393 159.0 21.3 3.62 142
2024 12 02 10  05 11 39.615   +02 59 27.30  .68046 1.6394 159.0 21.3 3.72 141
2024 12 02 11  05 11 32.742   +03 00 32.21  .68048 1.6395 159.1 21.3 3.82 141
2024 12 02 12  05 11 25.867   +03 01 37.14  .68050 1.6397 159.1 21.3 3.92 141
2024 12 02 13  05 11 18.991   +03 02 42.12  .68053 1.6398 159.1 21.3 4.02 141
2024 12 02 14  05 11 12.115   +03 03 47.12  .68055 1.6399 159.2 21.3 4.12 141
2024 12 02 15  05 11 05.237   +03 04 52.16  .68057 1.6400 159.2 21.3 4.22 141
2024 12 02 16  05 10 58.358   +03 05 57.24  .68059 1.6401 159.3 21.3 4.33 141
2024 12 02 17  05 10 51.479   +03 07 02.34  .68062 1.6403 159.3 21.3 4.43 141
2024 12 02 18  05 10 44.599   +03 08 07.48  .68064 1.6404 159.3 21.3 4.54 141
2024 12 02 19  05 10 37.717   +03 09 12.66  .68067 1.6405 159.4 21.3 4.64 141
2024 12 02 20  05 10 30.835   +03 10 17.87  .68069 1.6406 159.4 21.3 4.75 141
2024 12 02 21  05 10 23.952   +03 11 23.11  .68072 1.6407 159.5 21.3 4.86 141
2024 12 02 22  05 10 17.068   +03 12 28.38  .68075 1.6409 159.5 21.3 4.97 141
2024 12 02 23  05 10 10.184   +03 13 33.69  .68077 1.6410 159.5 21.3 5.08 141
2024 12 03 00  05 10 03.299   +03 14 39.03  .68080 1.6411 159.6 21.3 5.20 141
2024 12 03 01  05 09 56.412   +03 15 44.40  .68083 1.6412 159.6 21.3 5.31 141
2024 12 03 02  05 09 49.526   +03 16 49.81  .68086 1.6413 159.7 21.3 5.42 141
2024 12 03 03  05 09 42.638   +03 17 55.24  .68089 1.6414 159.7 21.3 5.54 141
2024 12 03 04  05 09 35.750   +03 19 00.71  .68092 1.6416 159.7 21.3 5.66 141
2024 12 03 05  05 09 28.861   +03 20 06.22  .68095 1.6417 159.8 21.3 5.78 141